sat.trackr.live / text

‹ back to catalog

STARLINK-33584

NORAD 62761 · 2025-015D

PAYLOAD ACTIVE UNKNOWN

§ Identity

Operator
Country
US
Launch date
2025-01-21
Launch site
AFWTR
Launch vehicle
Mass (kg)
RCS (m²)

Purposes: comms

External: N2YO · Heavens-Above · Gunter

§ Orbital elements

Epoch: 2026-09-21T20:55:26.420448Z

Period
93.85 min
Inclination
53.1591°
Eccentricity
0.0001110
Mean motion
15.34407342 rev/d
Perigee alt
461.9 km
Apogee alt
463.4 km
Semi-major
6,840.8 km
B*
3.3167e-4
RAAN
127.2336°
Arg perigee
92.1435°
Mean anomaly
267.9694°
Rev number
9,457

§ Raw data

STARLINK-335841 62761U 25015D   26264.87183357  .00010849  00000+0  33167-3 0  99912 62761  53.1591 127.2336 0001110  92.1435 267.9694 15.34407342 94570

JSON: /api/v1/satellites/62761 · /tle

For live sub-satellite position, see the globe view (requires WebGL).

§ Visibility from observer

Set your observer location to see the next 7 days of passes ≥ 10°. The values pass through the URL so the page stays shareable.

No JS? Fill the form by hand. The geolocation button needs JavaScript.